Flag for U.S.A. Weather past 2 weeks in Long Beach, California, U.S.A.

Now
86 °F

Sunny.


Feels Like: 88 °F
Forecast: 73 / 91 °F
Wind: 10 mph from South

Location: Long Beach Airport

Current Time: Sep 16, 2014 at 1:09:02 PM

Latest Report: Sep 16, 2014 at 11:53 AM


Visibility: 10 mi

Pressure: 29.75 "Hg

Humidity: 49%

Dew point: 65 °F

Location of Long BeachLocation

Historic Weather in Long Beach — Graph

°F

Long Beach temperature yesterday

Maximum temperature yesterday: 95 °F (at 12:53 PM)
Minimum temperature yesterday: 73 °F (at 2:53 AM)
Average temperature yesterday: 83 °F

Past Weeks' High & Low Weather Summary

 TemperatureHumidityPressure
High99 °F (Sep 14, 1:53 PM)90% (Sep 10, 1:53 AM)29.92 "Hg (Sep 10, 1:53 AM)
Low66 °F (Sep 10, 6:53 AM)26% (Sep 11, 12:53 PM)29.67 "Hg (Sep 14, 5:53 PM)
Average77 °F65%29.80 "Hg
* Reported Sep 1 10:00 AM — Sep 16 10:53 AM, Long Beach, Weather by CustomWeather, © 2014

Note: Actual official high and low records may vary slightly from our data, if they occured in-between our weather recording intervals... More about our weather records

Advertising

Long Beach weather history for previous 24 hours

 ConditionsComfort  
Time TempWeatherWind HumidityBarometerVisibility
10:53 AM
Sep 16
94 °FSunny.No wind38%29.75 "Hg10 mi
9:53 AM89 °FSunny.No wind43%29.76 "Hg10 mi
8:53 AM83 °FSunny.No wind55%29.77 "Hg10 mi
7:53 AM78 °FSunny.No wind69%29.76 "Hg10 mi
6:53 AM75 °FClear.No wind71%29.75 "Hg10 mi
5:53 AM75 °FClear.No wind74%29.75 "Hg10 mi
4:53 AM74 °FClear.No wind76%29.74 "Hg10 mi
3:53 AM74 °FClear.3 mph76%29.75 "Hg10 mi
2:53 AM74 °FClear.5 mph71%29.77 "Hg10 mi
1:53 AM73 °FClear.5 mph74%29.77 "Hg10 mi
12:53 AM75 °FClear.7 mph69%29.77 "Hg10 mi
11:53 PM
Sep 15
77 °FClear.6 mph66%29.77 "Hg10 mi
10:53 PM80 °FClear.3 mph62%29.77 "Hg10 mi
9:53 PM83 °FClear.No wind48%29.75 "Hg10 mi
8:53 PM85 °FClear.3 mph43%29.74 "Hg10 mi
7:53 PM86 °FSunny.6 mph40%29.72 "Hg10 mi
6:53 PM88 °FSunny.7 mph36%29.71 "Hg10 mi
5:53 PM92 °FSunny.12 mph31%29.70 "Hg10 mi
4:53 PM92 °FSunny.17 mph30%29.71 "Hg10 mi
3:53 PM92 °FSunny.17 mph31%29.72 "Hg10 mi
2:53 PM93 °FSunny.14 mph32%29.73 "Hg10 mi
1:53 PM93 °FSunny.14 mph32%29.76 "Hg10 mi
Weather by CustomWeather, © 2014

See weather overviewHow to use our weather pages